This is the latest recevied weather packets stored in our database for station/object K6CED. If no packets are shown the sender has not sent any weather packets the latest 10 day(s).
| Time | Temp. | Humidity | Pressure | Rain* | Wind** | Luminosity | Snow |
|---|---|---|---|---|---|---|---|
| 1788146742 | 73° F | 76% | 761 mmHg | 0 in | - | 0 W/m² | - |
| 1788146438 | 73° F | 75% | 761 mmHg | 0 in | - | 0 W/m² | - |
| 1788146137 | 74° F | 74% | 760.6 mmHg | 0 in | - | 0 W/m² | - |
| 1788145837 | 74° F | 73% | 760.9 mmHg | 0 in | - | 0 W/m² | - |
| 1788145536 | 75° F | 72% | 760.9 mmHg | 0 in | - | 0 W/m² | - |
| 1788145235 | 75° F | 72% | 760.9 mmHg | 0 in | - | 0 W/m² | - |
| 1788144933 | 75° F | 72% | 760.6 mmHg | 0 in | - | 0 W/m² | - |
| 1788144629 | 76° F | 71% | 760.7 mmHg | 0 in | - | 0 W/m² | - |
| 1788144324 | 76° F | 70% | 760.6 mmHg | 0 in | - | 0 W/m² | - |
| 1788144024 | 76° F | 69% | 760.6 mmHg | 0 in | - | 0 W/m² | - |
| 1788143722 | 77° F | 68% | 760.6 mmHg | 0 in | - | 0 W/m² | - |
| 1788143422 | 77° F | 67% | 760.4 mmHg | 0 in | - | 0 W/m² | - |
| 1788143121 | 77° F | 67% | 760.4 mmHg | 0 in | - | 1 W/m² | - |
| 1788142817 | 78° F | 65% | 760.4 mmHg | 0 in | - | 2 W/m² | - |
| 1788142515 | 79° F | 63% | 760.4 mmHg | 0 in | - | 4 W/m² | - |
| 1788142212 | 79° F | 62% | 760.3 mmHg | 0 in | - | 7 W/m² | - |
| 1788141907 | 79° F | 61% | 760.2 mmHg | 0 in | - | 11 W/m² | - |
| 1788141600 | 80° F | 60% | 760.1 mmHg | 0 in | - | 15 W/m² | - |
| 1788141296 | 80° F | 59% | 760.2 mmHg | 0 in | - | 18 W/m² | - |
| 1788140991 | 81° F | 58% | 760.2 mmHg | 0 in | - | 22 W/m² | - |
| 1788140686 | 82° F | 56% | 760 mmHg | 0 in | - | 25 W/m² | - |
| 1788140382 | 82° F | 55% | 760 mmHg | 0 in | - | 30 W/m² | - |
| 1788140078 | 84° F | 53% | 760 mmHg | 0 in | - | 37 W/m² | - |
| 1788139777 | 83° F | 53% | 760.3 mmHg | 0 in | - | 42 W/m² | - |
| 1788139473 | 85° F | 51% | 760.1 mmHg | 0 in | - | 50 W/m² | - |
* Rain latest hour (hover to see other rain measurements)
** Current wind speed in m/s (hover to see current wind gust speed)